Theta_e
307 308 308 308 309 308 308 309 311 312 313 312 310 315 306 303 301 306 309 312 309 300 292 293 290 288 292 298 297 298 297 297 298 296 296 293 294 292 291 291 292 293 292 294 291 293 289 293 292 295 296 296 298 305 300 303 300 299 295 299 297 293 288 285 286 290 291 291 288 293 291 293 291 292 294 293 289 290 288 287 288 285 286 283 283 280 284
306 306 307 307 307 307 307 307 308 310 311 309 309 305 303 304 302 300 309 312 308 298 286 286 286 289 294 295 294 299 298 297 295 295 297 294 293 291 291 293 295 291 296 294 290 293 285 291 291 291 295 293 300 300 300 301 297 296 295 293 296 288 287 286 283 283 284 288 290 287 289 291 288 289 291 293 294 293 292 290 287 283 284 285 283 278 285
304 304 305 306 306 306 306 306 306 307 309 311 308 301 305 302 301 300 302 307 305 295 296 293 290 289 289 291 290 293 295 298 297 297 296 297 296 294 292 293 296 293 293 291 292 293 290 286 291 292 291 292 299 301 299 300 297 298 303 296 296 289 287 286 280 277 276 277 278 281 283 283 288 290 291 292 291 291 288 284 285 281 284 286 283 283 288
302 303 303 303 304 305 305 305 305 305 305 307 308 303 302 298 292 297 297 301 299 298 300 296 295 290 289 289 291 294 292 297 299 299 296 298 296 295 295 293 292 291 291 288 288 288 292 289 287 288 287 290 293 293 296 300 297 296 296 294 293 287 288 289 286 283 282 284 287 293 290 287 284 286 288 289 292 292 290 288 285 282 285 284 286 287 287
302 302 302 302 302 303 304 305 305 304 304 304 304 303 301 301 295 293 287 297 296 294 297 294 296 291 294 286 292 290 292 294 296 301 294 298 297 294 293 292 290 289 290 287 288 289 289 290 288 287 287 289 291 292 294 294 295 293 292 293 292 285 284 287 288 287 288 290 290 292 293 288 287 287 286 289 289 288 286 285 283 288 285 280 287 289 287
301 301 301 301 301 301 303 304 304 304 304 304 303 296 301 292 297 302 299 294 287 289 288 293 292 295 296 290 295 292 292 292 290 297 298 299 299 293 292 292 291 291 291 290 286 288 288 288 285 288 288 288 290 290 291 288 292 291 289 289 289 285 284 287 287 287 290 291 290 291 291 291 291 289 289 287 288 287 284 285 288 289 284 282 287 289 287
302 300 300 300 300 300 301 302 303 304 303 304 300 292 299 299 298 298 303 294 298 294 295 295 292 291 293 291 293 291 292 292 295 295 294 295 293 296 288 291 293 292 292 291 288 289 285 285 288 287 288 288 289 287 289 289 289 289 287 288 288 286 284 287 287 286 287 288 289 290 289 288 289 288 288 289 288 288 288 287 289 289 287 288 289 289 289
302 302 301 301 300 300 300 300 301 303 303 303 297 295 292 292 294 293 301 298 296 296 295 294 293 289 292 288 290 292 292 292 295 297 296 291 293 298 292 293 295 294 293 292 289 290 292 291 289 291 290 289 289 288 290 288 287 288 286 288 288 287 283 289 287 284 284 286 288 289 288 288 286 287 288 287 287 288 289 289 290 289 289 290 289 288 287
301 301 302 302 302 301 300 300 300 300 302 297 295 293 298 298 300 297 291 288 291 294 293 292 291 289 290 288 289 292 292 293 296 296 300 296 293 295 292 295 295 296 295 293 292 295 294 294 295 296 295 290 292 290 287 293 285 287 285 287 286 287 284 288 285 282 281 286 286 287 288 288 286 285 286 286 286 285 287 286 289 287 285 287 287 285 286
301 301 301 301 301 301 301 302 300 300 301 297 295 290 299 295 297 299 294 286 292 289 292 293 291 286 290 291 291 291 291 295 296 292 298 300 300 299 298 297 296 294 295 293 295 297 298 297 298 299 299 300 292 295 294 294 289 286 286 290 286 286 285 283 283 280 279 285 286 285 285 283 280 281 285 286 287 288 289 290 290 290 291 286 284 285 291
300 300 300 300 300 301 301 301 301 300 300 296 293 292 294 291 290 290 291 285 288 290 289 289 289 290 294 294 292 294 293 294 295 290 291 299 299 302 301 299 295 293 294 297 304 304 303 302 301 300 298 296 294 294 294 294 294 290 288 286 286 286 285 283 285 279 279 284 284 285 281 274 276 287 291 290 287 287 285 286 289 291 291 289 292 292 294
300 300 300 300 300 300 300 300 300 300 300 299 299 294 296 297 293 291 286 282 284 290 288 286 289 291 292 293 294 292 292 292 293 297 293 296 299 301 301 300 298 291 301 306 304 301 301 298 297 295 293 293 294 294 293 291 292 293 292 288 286 285 285 283 285 281 279 283 283 279 273 275 286 291 293 292 291 290 289 289 291 291 292 292 292 292 293
300 300 300 300 300 300 300 300 300 299 299 299 299 292 297 298 292 288 286 283 280 284 284 286 290 290 291 292 291 292 294 295 296 296 296 295 294 297 299 298 297 298 306 304 302 301 293 290 291 291 291 292 292 292 291 290 291 292 292 293 288 285 285 284 283 283 283 280 279 274 273 285 288 291 292 294 293 292 290 288 290 291 292 292 291 292 294
299 299 299 299 299 299 299 299 299 299 299 299 296 296 296 295 290 288 286 282 281 286 286 286 287 287 288 288 289 290 292 292 293 294 291 295 294 294 298 300 301 305 304 301 298 295 290 289 286 287 286 287 286 285 287 290 291 290 290 291 291 288 286 286 281 285 277 279 279 278 286 283 285 287 289 290 287 288 287 282 287 292 293 293 292 293 294
299 299 299 299 299 299 299 299 299 299 299 299 297 296 297 297 295 290 289 286 277 282 284 279 283 286 287 287 288 286 286 287 288 289 294 296 294 296 298 300 303 303 300 296 291 292 288 288 283 282 283 283 277 280 289 284 289 292 291 291 291 290 285 285 283 280 285 278 277 278 277 275 282 289 293 296 294 294 294 290 286 295 295 295 294 293 294
299 299 299 299 299 299 298 298 299 299 299 299 297 295 296 297 297 294 290 284 282 275 280 285 286 284 283 284 286 284 282 283 284 285 286 288 291 295 297 296 295 299 301 294 290 287 286 284 281 283 279 282 285 284 280 286 283 288 291 290 290 290 289 287 284 281 284 280 277 276 276 279 287 289 294 295 296 296 294 288 283 293 295 296 295 294 294
298 298 298 298 299 299 299 300 299 299 298 299 295 295 294 298 296 292 289 286 283 278 287 286 286 285 283 281 284 283 286 284 286 282 282 285 286 286 287 289 291 294 296 292 288 287 284 284 284 284 285 287 283 282 287 285 281 284 287 288 287 285 285 285 281 279 281 280 278 277 282 281 288 292 293 296 297 297 291 279 280 293 294 296 296 294 294
298 298 298 298 298 299 299 299 299 299 299 299 297 293 293 297 297 296 291 286 281 281 286 287 284 281 280 282 282 285 287 284 285 286 283 284 285 285 284 285 284 291 294 288 287 286 284 284 281 281 281 288 288 287 280 286 284 283 284 283 282 282 283 284 279 280 281 281 279 282 283 290 293 293 295 296 296 293 282 277 286 295 295 296 296 295 295
298 298 298 298 298 298 298 299 299 299 299 299 297 295 293 296 297 296 291 286 283 278 286 290 291 286 288 290 285 286 286 285 284 280 279 281 283 285 284 284 287 281 288 285 287 284 283 284 287 286 283 285 288 282 287 284 282 288 288 284 283 282 283 282 284 280 279 280 279 278 283 289 294 295 296 296 291 281 280 290 297 296 295 297 296 295 295
297 297 298 298 298 298 298 298 299 299 299 300 296 291 293 296 296 295 290 284 285 283 286 287 288 285 288 285 283 282 283 284 285 281 279 276 284 284 281 276 287 284 281 285 280 286 284 282 285 287 283 284 286 289 286 286 290 287 287 289 285 283 283 278 281 282 283 281 278 278 274 287 296 294 293 295 287 287 295 296 296 296 296 296 296 296 296
297 297 298 298 297 297 298 298 298 298 299 299 297 293 290 294 295 297 295 291 285 281 282 290 290 288 288 287 287 286 284 281 282 279 281 281 284 281 271 273 279 279 276 281 274 276 280 275 278 280 281 281 282 280 278 281 283 289 290 288 288 289 285 283 284 285 280 279 277 277 285 290 295 294 288 292 294 297 297 296 295 297 297 296 296 296 296
298 298 298 298 298 298 298 298 298 298 298 299 298 294 288 293 295 296 295 294 286 283 285 290 292 289 291 292 292 291 289 288 288 288 283 280 283 281 280 282 279 280 281 284 279 278 280 280 281 276 274 277 281 276 278 277 275 283 284 284 280 291 285 287 283 288 285 282 286 290 294 294 296 296 296 297 299 299 299 297 296 296 297 297 297 296 297
297 297 298 297 297 297 297 297 298 298 298 298 297 293 288 292 293 295 294 288 289 290 290 289 290 290 291 292 293 293 293 293 291 289 288 282 279 282 280 280 279 285 283 284 278 278 278 279 275 279 277 278 278 277 278 277 275 279 278 286 285 287 288 288 286 284 289 289 292 293 294 294 293 295 296 295 295 295 294 293 293 294 295 294 293 293 293
298 297 297 297 298 298 298 297 297 297 298 298 297 291 290 293 293 293 292 289 285 281 285 287 284 281 284 284 290 293 293 292 292 291 292 288 279 279 283 284 285 284 282 285 287 281 279 280 278 281 274 278 281 276 274 274 277 282 279 278 283 286 288 284 280 283 281 278 290 286 288 290 290 291 293 294 294 292 292 292 292 292 293 294 294 294 294
296 296 296 296 296 296 297 297 297 297 298 298 297 296 295 292 292 292 287 281 281 280 275 280 283 287 290 292 293 291 291 293 294 292 291 290 286 281 279 284 287 283 282 285 288 284 282 276 276 276 272 279 282 273 280 275 274 282 275 278 281 280 289 281 281 281 278 279 283 284 286 287 288 291 292 292 292 293 293 294 294 294 294 295 295 294 294
296 297 297 296 296 296 297 297 297 297 297 297 296 292 291 290 293 293 288 287 286 284 276 275 280 289 291 289 287 290 293 292 291 291 291 290 290 288 286 286 285 287 285 285 285 281 280 278 278 277 274 273 283 275 275 278 278 281 277 276 282 281 283 275 278 277 278 282 283 285 286 287 288 292 292 292 291 292 292 292 292 292 292 293 294 295 294
296 296 296 296 296 296 296 296 296 296 297 297 295 293 292 292 294 290 286 285 281 276 278 276 281 283 283 284 289 291 291 291 290 289 289 289 289 289 288 286 284 284 284 282 284 282 280 278 276 273 276 275 280 277 278 277 276 275 274 278 281 279 275 279 278 274 275 276 279 283 278 280 287 289 290 290 289 289 288 289 288 289 289 291 292 292 294
295 295 295 295 296 296 296 296 296 296 297 297 295 295 293 291 292 293 292 290 284 278 278 279 279 281 287 282 287 289 290 290 289 288 287 288 288 287 286 285 285 283 282 280 277 278 277 275 273 278 278 279 277 274 279 279 279 276 276 278 282 278 279 279 276 276 275 281 284 286 286 284 284 285 285 285 286 286 285 285 285 286 286 287 287 287 288
295 295 295 295 295 296 296 296 297 297 297 296 293 291 289 290 292 293 292 292 290 284 281 281 283 282 275 281 289 287 289 289 288 287 287 287 287 287 286 285 284 283 283 282 280 279 277 277 280 277 275 280 277 273 276 271 271 270 273 279 279 280 282 281 281 281 281 282 281 282 280 279 281 283 283 283 285 284 284 284 285 285 286 286 286 286 286
295 295 295 295 295 296 296 296 297 297 296 292 291 285 281 284 291 290 292 292 290 286 280 277 274 277 285 283 281 285 286 288 287 287 286 285 285 285 285 284 283 284 283 281 280 275 278 278 280 281 282 284 277 275 273 272 271 272 279 279 280 281 281 281 282 279 278 282 282 282 282 282 283 283 284 285 285 285 283 284 285 285 287 288 287 288 288
295 295 295 295 295 295 295 296 297 297 296 289 286 278 277 275 284 292 293 293 292 285 280 280 275 281 279 283 283 283 285 286 286 285 285 285 285 285 286 286 285 284 280 280 280 279 280 275 277 278 282 281 280 275 273 272 270 272 277 279 280 280 280 280 282 282 282 282 283 283 283 283 285 285 284 284 282 282 282 283 284 285 286 286 286 287 287
295 295 295 295 295 295 295 297 297 296 293 288 282 280 282 284 290 294 293 293 289 283 279 275 275 276 275 280 282 285 285 286 286 286 285 286 283 286 285 285 282 285 283 280 280 279 276 279 278 278 278 281 281 275 275 273 271 272 278 279 280 281 282 281 282 282 282 278 277 277 278 279 280 278 276 279 279 281 281 283 284 284 284 284 284 285 285
294 295 295 294 294 295 296 295 296 295 289 292 293 293 293 293 293 293 293 290 287 283 282 277 272 275 273 276 280 279 283 282 281 283 280 286 282 284 281 285 284 283 286 281 277 275 279 279 279 276 278 282 277 275 274 272 274 278 279 280 280 281 281 281 280 279 276 275 274 270 271 273 274 275 276 277 279 280 280 279 279 280 280 280 280 281 283
294 294 294 295 295 296 296 295 295 295 294 289 284 285 288 292 293 294 290 288 284 283 282 276 272 272 272 280 274 280 284 278 278 281 276 283 284 282 279 281 282 278 281 278 279 279 279 279 275 276 279 277 279 275 271 274 278 278 279 280 280 275 273 274 276 275 272 271 271 271 270 271 272 274 276 277 276 276 276 276 276 276 276 276 277 278 279
294 294 294 295 295 296 295 294 290 287 284 284 285 289 291 293 293 293 290 284 277 276 276 276 277 271 271 272 271 276 283 279 276 280 276 280 286 279 280 277 279 275 276 284 278 277 275 276 279 274 272 277 274 271 272 275 277 278 278 275 270 269 270 269 271 270 268 268 267 268 268 270 272 272 271 271 271 272 272 271 272 271 270 272 273 275 277
294 294 294 293 294 294 289 288 288 286 283 283 285 291 293 294 294 291 288 285 282 277 275 274 275 270 272 267 268 274 283 277 279 280 280 279 279 281 279 277 272 276 280 276 273 276 274 279 277 271 275 271 270 272 275 276 274 273 270 268 267 265 265 265 265 265 265 265 265 266 269 270 268 267 267 268 269 268 268 267 267 268 268 269 270 271 272
294 294 294 292 289 285 283 284 288 287 285 289 291 293 291 289 286 286 284 283 284 284 277 275 273 272 273 271 275 277 279 272 279 276 277 276 274 278 276 274 271 276 276 274 274 273 276 282 275 271 271 270 271 276 270 268 268 267 266 265 265 264 264 265 264 263 262 261 264 268 267 264 263 264 264 265 265 265 264 263 265 265 264 265 266 267 268
293 292 288 284 283 279 279 282 284 289 292 291 291 286 283 284 278 279 280 278 281 281 277 277 272 276 278 275 271 280 278 275 280 274 274 277 274 273 277 274 274 275 267 271 273 279 277 275 272 271 271 276 277 266 265 265 266 265 264 263 263 263 263 263 263 261 259 260 263 263 261 260 260 262 262 262 262 262 262 263 263 264 264 264 265 266 267
290 286 285 284 281 278 278 281 290 292 290 290 287 281 277 279 277 274 275 277 278 274 278 275 273 276 275 274 276 282 278 275 274 274 270 277 273 269 275 268 274 274 269 270 272 279 270 271 272 271 270 274 274 264 264 263 264 263 264 263 263 262 263 262 262 261 259 259 260 260 260 259 259 259 261 260 261 262 262 262 262 262 262 262 263 264 264
284 281 281 280 279 282 288 289 292 289 287 279 277 277 272 276 273 270 277 270 271 274 277 272 277 276 277 274 274 274 282 276 271 271 273 274 280 270 274 273 274 270 264 266 270 277 270 267 270 270 268 273 268 262 262 262 261 262 262 262 261 262 262 262 261 262 262 261 261 261 261 261 261 260 260 259 259 259 259 259 260 261 261 261 262 263 263
283 281 280 279 282 285 286 287 286 285 280 276 275 274 272 269 273 272 271 268 268 269 276 276 277 275 278 278 277 273 281 281 278 279 276 271 279 276 270 266 276 267 264 264 273 274 271 269 269 268 270 268 262 261 260 260 260 260 260 260 260 261 260 261 260 260 260 259 259 259 260 260 260 259 259 259 259 258 258 258 258 259 260 260 260 261 263
284 282 283 285 285 285 284 282 281 277 278 278 272 269 271 271 272 269 271 267 268 271 272 274 272 274 274 277 276 277 277 280 278 277 274 269 276 273 270 271 272 267 264 271 274 272 270 265 266 267 268 259 260 258 259 257 258 257 258 259 259 259 259 259 259 259 259 258 258 258 259 259 258 258 258 258 258 258 258 258 258 258 259 260 261 262 263
290 287 286 283 282 281 281 275 277 276 270 270 268 266 270 266 268 268 269 272 272 270 272 278 276 279 278 279 276 278 277 280 275 275 273 270 277 274 267 267 266 262 267 274 271 267 265 265 265 268 261 258 257 257 257 257 257 257 258 258 258 258 259 258 258 258 258 258 258 258 258 258 257 258 258 258 258 258 258 258 258 259 259 260 261 262 263
286 284 280 279 277 277 277 267 276 270 269 270 267 263 266 264 266 267 264 269 269 269 274 272 274 274 271 277 275 275 275 276 279 272 271 272 269 265 267 263 265 271 274 268 267 265 266 268 269 265 257 257 257 257 256 256 255 256 256 257 257 257 258 258 258 257 257 258 258 258 258 257 257 258 258 258 258 257 257 257 259 259 260 261 262 264 265
280 277 276 274 271 275 270 265 273 268 265 266 270 267 267 264 268 268 268 271 272 271 273 274 275 274 272 273 274 274 277 271 277 269 266 270 265 267 264 264 269 270 266 264 265 267 266 267 263 256 257 254 256 255 256 255 255 255 254 255 255 256 256 256 256 256 256 256 256 257 257 257 257 257 257 257 258 258 257 257 258 259 260 261 262 263 264
276 274 273 269 266 271 268 265 267 264 268 270 269 270 270 271 271 270 267 265 270 272 272 271 271 273 272 274 271 271 274 273 269 268 271 269 264 262 269 272 270 264 263 265 262 262 264 268 262 257 255 255 254 255 254 254 255 255 254 253 254 254 255 255 255 255 256 256 257 257 257 257 257 256 256 257 257 257 257 258 258 259 261 261 262 262 263
276 276 273 272 268 270 270 264 265 267 267 269 270 271 271 269 266 265 263 263 266 267 268 268 269 271 271 271 271 271 271 271 265 269 270 263 263 267 273 266 262 264 260 260 261 263 266 261 256 257 254 255 254 253 254 254 254 254 253 254 253 254 254 254 255 255 255 256 256 256 256 256 257 257 256 256 256 257 258 258 259 260 261 261 262 262 263
272 276 274 267 266 269 266 268 268 266 264 266 266 267 267 267 267 265 263 263 264 267 266 267 269 271 270 274 272 268 270 270 266 268 269 266 269 265 264 263 263 265 265 262 264 265 260 256 255 255 254 254 253 253 253 253 253 253 253 253 253 253 254 254 254 255 255 255 255 256 256 256 256 256 256 256 256 257 258 259 260 261 261 261 261 262 263
277 274 271 269 270 270 268 269 268 270 267 264 265 267 267 267 263 261 262 264 264 264 264 266 269 269 267 271 268 269 266 271 264 266 269 266 263 261 262 260 261 260 265 265 262 256 255 255 254 254 253 253 253 252 253 253 253 253 253 253 253 253 254 254 254 255 255 255 255 256 256 256 256 256 256 256 256 257 259 259 260 260 260 259 260 261 261
275 273 273 271 269 270 270 269 269 269 267 265 265 264 265 264 262 261 263 262 262 262 267 269 271 268 269 269 265 267 266 269 266 268 265 263 263 263 264 260 262 263 263 254 253 254 254 254 254 252 253 252 252 252 252 252 253 253 253 253 253 254 254 254 254 254 254 255 255 256 256 256 255 255 255 255 256 258 259 259 259 258 258 259 259 259 260
277 273 267 266 267 268 268 267 267 267 267 263 261 260 261 261 261 260 261 260 261 264 267 267 269 267 266 266 265 262 264 268 265 265 265 264 267 264 262 261 263 255 251 252 253 253 253 253 253 252 252 252 252 252 252 252 252 252 252 253 253 254 254 254 254 254 255 255 256 256 255 255 256 256 257 257 257 258 258 258 258 258 258 258 259 259 259
272 270 266 263 262 262 263 262 259 258 258 258 257 258 259 259 259 258 261 261 261 264 266 268 266 266 264 262 264 265 266 264 264 264 263 264 258 260 262 257 251 249 251 250 251 252 253 253 253 252 251 251 252 252 252 252 252 252 252 253 253 253 252 253 253 254 254 255 255 255 255 256 256 257 257 257 257 257 256 256 257 258 258 258 259 258 257
Wind_Speed
12 12 13 14 14 16 17 20 21 17 15 6 6 2 4 4 5 4 11 16 20 12 8 3 7 10 8 4 7 5 6 5 2 5 8 7 2 3 3 10 10 10 12 11 10 9 9 7 11 7 9 13 14 5 16 9 10 10 4 3 2 7 1 4 12 6 6 3 2 1 2 2 4 7 7 8 14 13 12 9 2 4 4 7 9 15 15
10 11 11 12 13 14 15 17 19 20 15 7 6 6 6 6 4 2 7 15 15 12 9 7 11 9 8 7 13 8 7 7 10 12 10 7 4 12 7 6 12 9 4 2 10 8 12 8 15 10 6 9 7 9 9 11 6 10 6 10 7 2 3 8 7 6 4 13 4 3 2 5 10 11 10 12 10 10 6 3 2 5 14 19 12 15 10
10 10 10 11 12 12 13 13 15 18 19 13 5 4 4 3 2 1 5 10 11 15 12 14 13 12 12 13 15 10 8 8 14 12 11 9 11 6 8 10 1 6 4 9 7 7 12 9 7 9 4 8 4 4 12 12 10 10 6 7 8 9 4 8 11 12 14 12 15 17 5 9 8 9 12 14 17 13 7 11 7 13 19 24 15 16 22
14 14 13 13 11 11 11 11 12 14 16 18 5 4 4 4 6 4 4 7 8 7 3 3 7 11 14 13 13 12 13 7 12 12 13 12 11 13 5 3 2 10 5 9 12 17 14 12 4 7 2 5 0 1 4 4 8 11 4 3 8 2 5 12 13 15 15 18 20 3 8 6 8 11 12 10 14 19 16 8 10 18 16 12 16 23 21
13 14 13 13 13 12 11 11 11 11 13 16 8 4 4 5 7 4 4 2 11 10 8 7 7 10 12 10 6 16 18 13 9 11 9 13 17 10 8 4 6 4 9 12 15 14 13 13 15 12 14 9 8 3 3 4 6 2 2 2 2 1 7 17 24 28 25 22 24 24 17 9 13 10 14 15 15 12 15 14 21 18 7 18 15 24 21
13 14 14 14 13 13 12 11 11 11 12 14 7 6 3 8 4 6 6 10 5 9 12 12 12 7 8 9 6 15 16 16 14 7 15 8 11 9 3 13 17 17 17 13 11 9 15 11 12 10 14 12 16 15 4 7 6 6 3 0 5 7 14 15 17 20 21 20 21 20 22 22 14 14 12 16 17 15 19 26 28 12 14 19 20 24 22
15 14 14 14 14 14 13 13 10 10 11 8 3 7 5 8 5 5 3 6 3 15 19 22 24 18 19 8 15 18 18 20 18 13 6 11 8 15 13 17 22 22 22 17 15 13 10 10 12 12 13 19 14 10 6 6 4 6 3 3 3 1 11 11 15 17 16 16 18 21 27 23 22 17 13 10 13 21 27 29 11 16 24 27 24 24 28
16 15 14 14 14 13 13 14 11 7 10 5 4 5 7 5 5 4 3 8 7 8 6 11 16 14 16 12 14 13 19 22 18 14 12 8 10 13 20 15 18 21 21 21 17 18 21 20 17 13 19 14 8 10 14 4 1 4 7 4 1 7 11 12 13 14 18 20 22 22 22 18 14 13 14 12 16 22 24 16 9 17 23 22 28 29 26
15 14 14 14 15 14 13 12 12 9 7 5 2 5 6 6 8 7 10 11 7 7 10 9 11 12 12 14 16 14 18 20 20 19 17 22 17 14 23 21 26 20 20 21 23 23 23 24 27 24 16 15 9 12 2 14 4 4 1 2 2 6 9 8 4 11 15 15 22 24 15 14 17 17 16 20 26 26 22 20 18 19 20 24 21 17 17
16 16 14 13 14 13 13 13 12 9 1 4 3 7 4 5 6 7 5 9 3 11 5 9 8 13 9 11 13 14 19 20 16 19 16 20 18 17 17 18 18 16 21 24 22 22 25 26 27 22 19 12 3 7 6 11 11 6 8 4 4 6 5 8 9 13 17 16 18 18 16 13 15 17 27 35 32 25 24 26 27 25 21 19 15 15 20
16 15 15 14 14 13 13 12 12 13 7 5 4 6 5 4 5 6 5 10 4 10 9 12 14 8 8 15 13 15 16 14 18 19 6 11 20 20 24 16 15 13 20 21 20 20 18 17 17 15 14 13 6 7 9 10 11 13 9 4 3 5 11 12 9 12 13 16 20 13 10 14 15 24 31 25 26 27 28 26 30 32 25 19 20 20 15
17 16 16 16 15 15 14 13 13 12 11 7 5 6 4 2 4 3 5 10 10 9 12 12 10 5 11 13 15 13 17 19 21 18 24 16 18 18 21 23 18 19 9 12 3 6 3 6 5 4 5 10 13 12 12 14 12 11 11 13 10 13 13 14 7 11 9 12 12 11 18 19 21 17 4 12 21 27 29 30 29 29 28 28 27 27 28
16 16 16 16 16 15 15 14 14 13 12 8 6 8 6 3 2 4 6 9 9 7 13 14 11 15 15 16 17 17 16 16 16 20 22 21 19 18 13 15 16 15 12 12 2 8 11 10 11 11 13 9 12 13 16 16 18 19 16 18 14 14 14 10 9 10 7 6 10 13 18 4 5 5 13 17 19 19 19 23 28 32 32 30 28 28 28
16 17 17 17 17 16 16 16 15 14 14 11 9 7 6 5 4 5 4 6 9 7 10 15 17 21 20 18 17 17 16 18 18 16 18 14 19 20 18 16 15 10 4 7 6 6 10 3 11 7 9 7 8 10 14 20 24 22 24 21 19 20 15 11 11 11 13 9 15 22 3 3 6 5 12 16 15 15 19 21 25 29 28 27 24 25 28
17 17 17 17 18 17 17 17 16 16 15 14 9 8 8 6 6 5 3 6 12 9 8 10 7 12 9 9 7 9 9 10 10 12 12 12 16 12 15 16 14 14 4 6 4 4 10 6 9 5 4 8 10 7 7 9 8 22 25 22 21 19 18 12 18 11 14 12 11 8 10 15 11 16 15 17 21 24 27 22 24 11 14 17 21 25 26
18 18 17 18 18 19 19 18 17 17 17 15 10 9 9 8 7 6 6 7 6 11 7 7 5 7 7 8 9 11 10 9 9 11 12 10 9 10 9 12 13 14 8 4 4 5 6 9 12 9 10 7 5 4 5 5 3 6 22 26 22 21 20 18 17 8 11 13 10 10 13 12 11 20 20 23 20 21 21 20 17 7 8 13 21 23 24
20 19 19 19 19 19 18 18 18 19 19 16 11 10 10 9 7 7 6 6 6 11 8 13 9 8 7 10 8 9 6 8 6 7 7 4 5 7 9 9 8 7 12 8 7 5 6 9 4 11 11 4 7 6 2 5 5 3 4 13 24 19 14 10 17 13 12 15 13 14 7 13 11 15 17 20 23 21 13 21 7 12 19 24 26 28 27
19 19 20 20 19 19 19 19 19 19 19 19 11 8 10 10 10 8 8 9 9 9 9 11 10 8 8 6 9 5 5 5 5 5 7 5 6 4 6 7 9 8 9 12 3 8 10 10 12 9 14 11 7 7 16 3 10 8 7 11 9 13 10 14 23 13 21 23 14 8 8 5 6 17 18 21 21 18 20 24 2 14 20 23 25 27 23
20 20 20 20 20 20 20 20 20 20 19 19 12 10 9 9 9 9 9 8 8 11 6 7 6 8 6 6 5 6 4 5 7 7 7 8 2 3 2 6 3 7 5 5 7 11 8 12 11 9 11 11 11 13 5 15 14 9 18 6 6 10 12 10 14 19 16 16 19 17 14 14 15 13 19 17 12 14 21 16 20 24 23 20 17 18 18
21 21 21 21 21 21 21 21 20 19 21 21 13 8 9 9 10 12 10 11 9 12 11 13 10 15 9 9 7 7 6 8 4 8 8 12 5 15 12 9 1 2 6 4 9 4 11 10 10 9 12 11 13 10 13 21 13 19 11 16 12 11 11 13 14 11 15 11 13 9 13 7 21 25 21 17 17 18 16 20 18 20 18 16 14 14 15
21 21 21 21 21 21 20 20 20 20 20 20 18 8 9 9 12 11 11 9 10 12 11 12 14 17 12 14 14 15 11 11 7 9 6 9 4 3 6 5 4 5 4 5 6 6 6 8 8 6 6 7 8 9 8 11 9 11 16 15 13 11 14 7 11 12 12 15 15 10 7 13 16 18 15 14 24 20 21 18 19 15 13 11 11 12 13
22 21 22 22 22 22 22 22 21 21 21 22 19 10 10 9 9 10 9 9 10 11 8 8 5 5 6 8 9 9 10 12 13 11 10 10 6 8 8 9 10 3 4 2 7 5 5 3 5 7 11 11 4 9 12 10 6 4 10 5 7 3 7 10 9 4 8 5 5 7 11 11 3 11 17 17 16 13 16 18 18 15 12 12 12 14 15
22 22 22 22 22 23 22 22 22 21 22 22 18 9 10 8 9 11 8 9 8 9 7 9 10 10 11 14 17 15 13 12 14 13 12 11 12 9 11 9 10 5 3 3 8 8 10 9 13 8 11 7 8 9 4 5 6 2 8 2 6 13 9 2 5 5 10 12 7 8 9 12 15 16 15 15 14 15 12 10 12 13 14 12 10 13 15
22 22 22 21 22 23 23 23 23 22 23 23 17 9 10 8 8 5 6 7 5 7 8 9 9 10 13 18 17 11 13 16 16 15 12 11 13 11 11 11 10 7 3 5 8 9 8 8 6 4 9 4 10 11 12 13 6 6 9 11 5 6 5 5 5 8 9 7 8 17 16 19 19 19 19 18 7 5 5 7 8 8 12 14 13 13 13
23 22 22 23 23 23 24 24 24 23 22 25 20 11 9 6 6 8 8 7 7 8 8 5 12 15 16 13 11 11 12 9 8 10 11 11 13 12 14 12 10 11 12 10 5 5 5 9 9 8 14 4 3 14 5 11 13 7 14 11 12 10 12 19 5 16 11 11 15 22 24 25 20 15 10 6 8 8 8 8 7 9 10 12 14 13 14
23 22 22 23 22 22 22 23 24 24 22 23 17 11 10 9 9 9 7 4 4 3 4 7 8 6 7 9 12 12 8 8 10 11 12 13 14 15 15 12 12 10 12 9 8 10 10 10 9 12 12 9 6 10 8 9 12 11 15 14 8 15 15 11 11 19 18 24 21 14 19 20 20 8 4 10 7 10 11 11 13 14 15 16 16 12 13
23 23 23 23 23 23 24 24 25 24 23 22 15 10 11 8 8 10 8 8 4 5 8 10 8 1 1 9 11 8 9 10 10 11 11 12 13 13 13 13 13 11 12 11 11 10 8 10 11 13 9 9 5 8 7 11 10 11 14 13 12 12 16 18 16 14 16 12 16 18 17 15 15 12 11 12 13 13 15 17 18 18 17 15 16 17 16
24 24 24 23 24 24 23 24 24 24 23 22 15 9 8 10 11 13 11 11 13 11 7 7 5 2 3 3 8 9 9 10 11 11 11 12 13 12 12 13 13 11 10 10 11 9 10 12 12 8 7 6 10 11 10 14 12 13 11 11 9 13 14 12 11 10 15 13 14 12 15 17 13 16 20 23 21 20 20 18 19 20 20 20 21 22 21
24 24 24 24 24 24 24 24 23 23 24 19 7 7 7 9 7 9 9 9 7 7 8 7 5 4 5 2 3 4 10 11 11 12 12 12 13 13 13 13 13 11 10 10 11 11 11 12 10 9 7 8 9 8 8 12 10 14 10 12 14 13 15 17 17 19 22 19 18 16 17 20 21 23 24 22 19 20 23 21 19 19 17 17 16 16 18
24 24 24 24 25 25 25 25 24 23 22 11 5 1 3 4 10 13 14 12 10 6 6 5 6 4 2 3 6 10 9 11 12 13 14 12 12 12 12 13 12 11 10 10 10 11 11 10 9 11 12 10 12 9 13 12 14 13 12 15 17 18 20 18 17 20 21 19 18 17 19 23 20 19 18 18 16 13 14 16 17 19 19 18 20 19 18
24 25 25 25 26 26 25 25 23 23 19 9 3 3 3 5 6 13 16 15 11 6 3 3 6 2 3 3 3 8 12 10 11 12 13 13 13 13 11 9 10 9 11 10 10 12 10 11 8 11 11 13 11 10 13 12 14 12 13 15 15 18 18 19 18 18 19 18 16 14 15 15 14 16 13 12 16 17 18 16 20 19 20 21 21 20 19
24 25 26 26 27 26 25 24 23 20 11 8 8 6 3 2 1 6 14 11 7 6 6 5 5 4 3 3 3 3 8 11 10 8 8 8 9 10 10 9 9 10 10 10 10 9 10 11 13 13 12 12 12 11 11 15 16 14 14 16 16 17 16 17 17 17 11 12 13 12 12 13 10 10 12 16 19 17 18 18 17 18 20 20 19 20 21
25 25 27 27 27 26 25 26 24 16 11 12 14 13 4 4 2 8 9 7 6 3 2 2 4 2 2 2 2 1 4 2 4 6 8 8 9 5 8 8 10 9 9 10 8 6 6 10 10 12 12 12 11 8 12 15 15 15 18 18 17 17 17 12 10 8 8 9 9 3 10 13 15 18 19 18 17 16 17 18 17 16 18 20 21 21 20
25 26 27 26 25 23 23 24 23 21 14 6 3 6 6 7 6 10 9 6 2 1 3 3 3 6 5 1 2 3 10 7 7 7 7 6 7 7 6 6 7 6 5 8 8 9 7 8 11 12 9 9 10 11 11 13 18 20 18 20 13 10 9 9 7 7 10 11 9 7 9 13 15 15 14 15 17 17 16 14 16 18 20 18 19 19 20
25 25 26 24 22 20 20 18 7 3 4 3 5 5 8 18 13 14 14 7 4 3 3 4 3 4 4 4 6 4 3 5 8 9 9 5 6 5 4 6 5 6 5 6 10 9 10 8 10 11 12 9 9 9 10 14 19 18 13 8 11 12 12 13 9 10 12 12 13 13 13 13 12 12 14 18 17 17 18 16 15 16 16 17 19 19 16
23 22 19 16 16 12 2 2 4 4 4 5 4 5 13 16 18 10 5 3 1 2 3 3 4 5 5 7 6 2 5 7 9 7 8 3 3 3 4 3 9 9 8 6 9 8 10 8 8 12 8 9 9 10 13 10 7 6 6 6 7 7 6 8 12 17 17 14 14 14 11 9 12 15 14 15 15 16 17 19 20 15 15 16 19 19 18
18 16 11 6 2 2 4 4 3 6 3 3 6 10 10 12 8 6 1 1 1 1 3 2 5 6 7 6 3 3 5 4 6 7 4 4 5 2 3 3 9 6 4 7 8 10 13 11 9 10 8 11 13 6 7 7 7 6 6 6 8 7 7 8 10 13 17 18 14 3 4 12 14 10 10 12 14 16 17 18 16 14 17 20 21 19 18
14 7 4 4 4 5 3 4 3 4 6 14 13 6 0 1 1 2 2 4 3 4 3 2 5 5 4 6 8 4 4 6 3 4 2 2 2 3 3 5 5 3 6 7 9 8 7 4 8 10 10 12 8 11 6 7 4 6 5 7 8 8 8 8 10 11 13 17 19 19 20 19 17 13 8 14 17 18 18 17 16 16 15 17 18 18 19
5 2 1 3 2 2 2 1 5 11 8 5 1 2 0 1 2 2 3 2 1 4 3 5 7 8 9 10 11 7 7 5 3 2 4 4 3 3 3 3 4 4 5 5 7 4 6 7 8 9 11 11 7 4 6 4 5 3 5 6 7 8 8 8 8 10 9 8 13 15 11 13 17 23 21 18 18 18 17 17 18 18 16 18 19 19 20
5 6 4 3 3 2 3 4 11 9 4 2 2 0 2 1 4 2 3 1 2 3 2 7 7 8 11 13 12 11 6 7 10 9 7 4 2 3 3 2 2 1 2 6 5 3 5 7 7 7 10 6 2 5 5 5 5 5 6 8 8 9 9 9 10 9 12 15 16 16 15 16 16 17 19 21 20 22 24 20 16 16 17 19 21 20 21
4 1 1 2 2 3 3 2 2 2 2 3 2 0 1 2 2 0 1 2 2 2 3 5 3 6 8 12 11 12 3 3 2 0 3 6 2 2 2 3 1 1 3 3 3 2 4 4 7 8 8 2 3 4 5 6 6 7 7 7 9 9 9 12 12 11 13 14 14 14 14 15 17 17 17 21 21 21 22 22 24 21 20 22 24 24 19
3 1 2 4 4 4 3 1 1 2 1 2 2 3 3 1 2 1 2 4 4 2 3 5 5 8 7 7 8 4 3 1 0 2 3 5 4 4 4 2 1 4 6 3 1 2 2 5 4 8 1 4 3 3 5 6 7 9 10 9 10 10 10 12 14 13 10 14 15 16 16 16 16 16 16 18 20 22 23 23 26 25 23 22 22 21 20
13 9 4 4 2 2 2 2 2 1 2 3 3 3 3 2 4 4 3 2 1 1 1 2 1 2 1 1 2 4 3 1 3 4 5 3 1 0 1 2 1 3 4 0 1 2 5 5 7 6 4 3 4 4 5 7 9 9 10 10 11 11 12 13 14 16 15 14 17 17 17 17 17 16 17 19 22 29 27 23 24 25 24 21 20 18 17
3 1 2 1 2 2 2 4 2 3 3 2 4 6 5 2 2 2 2 3 3 2 3 3 3 4 3 3 2 2 1 2 2 1 2 1 0 2 2 3 4 3 2 2 3 7 7 5 5 1 4 2 3 6 9 10 10 11 11 9 11 12 12 13 15 16 18 15 14 15 15 16 18 17 14 16 19 25 27 25 22 23 26 24 22 20 20
4 1 2 1 2 1 3 2 2 2 5 6 3 4 5 8 7 7 6 1 1 0 2 1 1 2 3 1 0 1 1 1 2 2 2 2 2 2 1 3 1 1 1 4 3 6 3 9 2 3 4 5 7 7 8 9 9 11 15 16 13 12 14 16 17 15 16 16 17 17 17 16 17 18 16 17 17 18 21 25 23 21 21 20 21 21 19
3 3 3 3 2 2 2 1 2 4 2 2 3 2 3 2 1 1 3 2 0 0 0 2 2 0 2 0 1 1 1 1 2 3 2 1 1 3 3 1 1 2 3 3 5 9 12 7 4 3 5 7 8 10 9 9 9 9 11 14 16 15 14 15 17 17 17 17 17 16 18 17 17 18 19 17 16 18 20 20 20 19 20 20 20 21 20
1 1 1 0 1 1 2 2 3 2 0 0 1 2 1 2 3 3 1 3 2 2 2 1 0 1 1 0 0 1 0 0 1 1 2 2 3 2 1 1 4 3 5 8 8 8 4 3 2 4 5 8 10 11 10 10 9 11 12 14 15 16 16 17 17 18 18 17 19 19 17 16 17 17 18 19 18 17 19 19 20 20 19 18 19 19 19
2 1 1 2 2 2 4 3 2 2 1 0 1 1 1 3 2 3 4 3 3 2 2 1 0 1 1 1 1 3 0 2 1 2 3 2 1 1 2 3 5 4 4 5 10 1 2 3 5 8 9 5 8 11 12 13 13 14 14 15 16 17 17 18 18 17 17 20 19 18 17 18 18 19 19 20 21 19 18 18 18 17 15 16 16 16 14
1 1 2 1 0 1 0 2 1 2 1 1 1 2 2 1 3 3 3 3 3 1 2 0 0 1 1 1 1 2 3 3 3 3 1 2 2 4 3 6 6 10 5 1 2 3 4 7 7 9 9 9 8 10 12 11 12 14 15 17 17 17 18 17 17 18 19 18 16 17 17 17 18 18 18 18 18 17 16 17 17 14 14 15 15 14 12
2 1 1 1 1 1 2 1 0 2 2 1 1 2 3 3 3 3 4 3 3 3 2 3 2 1 2 1 2 3 3 2 3 1 3 5 4 2 4 10 7 7 2 3 3 5 7 9 9 11 10 11 11 10 12 13 13 15 14 15 15 15 16 18 20 19 18 17 17 17 18 18 17 16 17 17 17 17 16 14 13 13 13 13 12 12 11
0 2 2 4 1 1 1 3 2 1 2 1 2 3 3 3 3 2 5 4 4 2 1 2 1 2 2 2 2 3 2 1 1 6 7 7 3 4 7 11 4 2 3 5 6 8 9 8 9 10 13 14 13 13 12 13 15 15 15 16 15 15 16 17 18 18 18 16 15 17 18 16 16 17 17 16 16 16 14 12 10 12 13 12 11 11 11
2 3 2 3 5 4 3 3 4 4 3 3 3 3 3 1 3 3 5 4 3 2 2 1 0 2 2 4 2 1 2 0 4 1 5 4 2 3 4 2 3 4 7 8 9 7 8 8 8 10 12 13 15 16 16 16 16 16 15 15 16 17 17 16 17 16 16 15 14 15 17 17 18 16 15 16 15 13 11 10 10 11 12 10 10 11 10
Wind_Direction
1 359 2 5 9 16 14 8 2 356 353 348 345 297 242 195 256 7 161 166 154 165 206 186 205 212 245 301 314 266 266 262 289 264 211 242 164 313 266 241 245 235 251 251 251 218 249 212 228 227 231 249 228 165 188 184 174 188 198 225 207 55 176 224 251 291 314 281 67 318 16 246 287 251 238 204 214 204 221 233 233 238 184 216 229 237 259
347 353 355 358 1 5 14 10 4 0 3 348 321 282 263 235 203 163 213 182 163 183 185 201 227 240 294 241 247 246 250 239 242 239 219 223 180 230 236 263 227 264 257 285 258 247 265 216 251 250 245 261 236 250 223 179 190 188 181 210 147 193 179 216 243 248 286 276 251 209 171 195 223 225 214 224 227 219 229 26 77 251 231 244 243 252 253
318 332 342 348 356 358 3 8 1 3 357 350 322 294 312 316 357 323 190 213 190 199 197 211 206 209 225 228 237 240 238 225 235 234 233 219 242 249 245 249 23 241 204 259 267 257 247 276 256 269 248 269 49 336 245 208 224 213 11 19 148 222 170 184 224 222 229 227 231 237 197 201 218 234 230 212 214 214 209 233 212 246 243 241 245 261 255
320 312 313 321 337 348 353 358 0 358 357 351 327 308 278 210 259 152 210 216 248 279 328 266 212 209 219 241 238 240 250 252 242 231 249 230 240 233 254 25 190 248 224 235 237 245 237 237 248 235 275 263 3 207 332 253 220 236 182 198 157 237 184 216 227 232 232 230 245 269 94 154 191 210 213 203 210 216 222 227 233 230 241 240 242 250 268
317 321 321 322 320 330 343 348 356 0 353 1 334 301 242 309 254 147 215 256 240 245 231 220 181 216 190 226 153 229 228 233 255 182 249 203 229 235 228 217 231 223 227 239 249 241 252 234 248 246 259 256 261 39 42 321 275 48 338 307 292 36 234 223 232 235 237 239 242 249 246 219 194 194 207 208 207 207 213 217 236 236 266 252 244 254 258
311 311 313 316 319 321 328 339 351 357 355 0 334 263 202 245 238 228 189 200 182 228 257 246 244 256 209 229 199 231 226 220 238 202 228 228 196 208 216 219 222 227 225 219 234 224 240 235 247 245 252 265 262 266 182 216 183 163 221 184 195 220 241 238 243 245 245 249 258 259 257 252 235 198 195 203 204 208 213 225 232 219 236 254 251 254 260
314 306 306 310 310 312 315 323 340 351 354 352 339 286 214 246 331 299 334 254 227 215 219 214 224 222 221 221 219 229 231 231 216 215 205 208 215 196 236 218 225 224 228 224 238 225 253 243 230 226 237 232 243 254 258 230 140 166 190 179 185 278 242 248 247 262 259 260 257 258 263 267 266 253 243 239 226 227 230 240 219 217 243 247 254 258 259
318 322 320 313 307 304 307 311 319 344 347 338 305 267 266 237 248 256 272 267 286 306 277 244 234 236 224 236 221 223 230 236 235 224 210 219 220 193 232 226 222 222 223 225 229 223 225 234 244 217 222 239 215 240 221 232 36 161 197 156 254 189 239 232 252 259 253 250 252 256 255 260 270 273 274 283 281 264 250 254 235 235 241 244 242 247 257
306 311 317 318 318 313 306 301 303 317 351 325 297 290 278 311 313 317 297 291 275 256 251 243 241 243 222 231 237 242 243 242 237 240 210 214 222 187 223 216 236 230 228 228 230 230 232 234 235 243 235 243 201 221 214 200 174 153 176 143 272 196 250 224 236 240 248 238 243 242 247 257 267 276 281 268 254 255 263 258 243 235 242 248 253 254 252
297 298 300 302 300 309 316 313 302 294 1 271 296 277 304 344 317 313 300 275 252 279 259 250 242 237 214 225 223 222 238 237 241 257 239 242 231 230 219 216 232 231 235 235 231 232 232 233 236 244 254 257 95 231 217 192 179 179 205 166 189 186 198 213 217 237 239 238 242 246 255 272 270 258 246 243 247 250 255 256 256 252 251 254 246 234 229
287 289 290 289 290 293 298 297 299 298 275 274 272 277 304 315 319 336 308 281 237 254 265 258 248 254 256 221 240 223 242 237 243 248 241 229 243 240 248 236 225 236 225 231 232 242 250 252 255 258 255 252 208 209 196 196 180 170 184 194 187 186 214 228 212 242 242 238 247 249 249 233 226 232 233 234 244 245 243 246 248 249 242 241 243 256 262
285 286 286 287 286 285 285 288 286 288 286 276 229 252 253 279 292 270 287 260 268 254 250 253 249 288 254 266 252 236 227 227 237 236 255 246 253 252 246 243 240 250 241 260 69 89 124 54 350 241 263 265 250 228 209 209 206 199 198 206 210 211 219 236 213 243 233 236 248 244 226 232 232 247 240 231 234 239 240 244 248 254 255 253 254 254 254
283 282 282 281 281 282 281 280 281 276 271 274 279 271 267 164 220 273 280 286 279 273 267 261 258 264 273 279 278 275 275 269 259 251 252 255 257 255 255 260 246 264 281 278 154 231 248 254 254 253 257 246 243 239 232 226 225 212 212 214 215 224 221 225 223 230 253 227 206 236 239 231 284 211 221 224 235 240 253 258 249 247 247 248 248 249 250
280 278 277 277 277 277 276 276 278 278 271 267 267 264 266 239 224 234 244 284 269 272 296 288 269 268 268 268 274 281 281 272 270 266 267 266 266 260 262 258 266 277 23 25 294 298 281 234 264 239 233 214 246 240 227 227 222 215 216 214 215 219 229 213 248 201 236 208 214 232 260 320 136 184 219 214 215 217 219 240 240 231 234 236 246 249 253
279 279 277 276 275 273 273 273 272 272 272 267 265 266 261 240 232 236 216 241 272 277 270 266 278 291 322 316 315 306 293 300 304 282 283 272 258 252 258 266 269 266 122 252 257 223 249 268 247 224 206 202 230 244 161 234 209 217 218 215 212 210 218 197 231 217 211 230 235 234 224 237 190 208 223 220 218 221 231 236 253 209 233 236 244 245 245
277 277 277 275 273 272 271 270 268 266 265 266 262 262 264 256 243 239 243 251 276 272 240 238 354 340 315 304 318 304 297 302 285 290 282 279 276 307 305 342 324 308 267 184 219 230 217 232 243 234 234 218 230 256 219 173 242 209 212 215 217 216 218 225 225 234 211 227 232 221 227 229 177 221 218 230 232 231 243 253 252 141 196 218 239 242 241
275 275 274 274 272 271 268 264 263 263 264 261 259 253 253 234 231 232 233 239 218 243 317 300 282 287 304 293 286 268 266 270 308 295 298 289 349 326 311 317 306 289 259 213 216 219 215 227 236 243 256 218 232 221 223 210 191 183 198 213 218 213 211 206 231 228 227 243 237 239 206 248 199 216 223 230 237 240 242 251 242 149 205 222 232 239 244
275 275 274 273 272 270 268 264 262 262 260 258 256 251 250 242 234 233 242 245 252 268 246 249 262 269 261 272 280 302 310 298 269 258 274 290 291 335 340 345 337 310 311 258 166 225 221 217 226 222 244 201 243 250 240 195 233 198 179 191 197 216 218 211 226 221 227 225 245 254 245 222 165 216 216 223 230 232 236 240 214 215 214 221 228 237 241
277 274 271 269 269 270 269 267 264 259 257 255 252 249 259 251 243 231 246 244 242 256 245 253 237 251 262 306 243 249 236 265 282 298 296 306 220 157 319 256 202 291 324 304 264 241 227 228 227 231 246 226 217 244 227 239 239 236 231 185 222 212 202 214 207 221 222 225 234 235 242 219 217 224 223 224 230 230 235 237 233 242 239 239 235 245 248
275 274 272 272 271 269 266 265 262 260 259 257 254 249 252 250 234 227 229 247 250 260 259 259 250 256 246 249 263 264 264 259 235 281 287 278 336 342 333 335 128 199 297 265 266 271 253 244 241 239 231 225 230 262 242 241 231 233 239 210 211 175 200 205 202 218 230 230 240 246 240 119 193 228 230 213 230 236 239 249 242 245 251 251 252 251 255
275 274 274 272 271 270 270 268 267 267 258 253 252 248 258 240 239 232 235 239 256 268 266 259 259 261 253 251 252 258 260 265 285 278 276 277 334 328 259 240 337 36 282 311 305 312 329 329 332 318 357 346 357 344 303 335 288 281 254 246 239 174 231 212 211 181 214 214 212 229 239 237 206 208 231 201 223 235 238 243 255 252 255 253 257 257 261
275 273 272 271 269 268 268 265 260 255 256 255 253 248 251 247 236 229 237 237 240 242 254 283 302 260 267 275 273 263 258 262 261 261 271 276 269 246 279 300 277 251 255 297 283 299 268 299 345 315 308 310 319 258 268 277 254 332 330 6 265 87 311 346 312 300 263 292 327 334 351 350 323 246 256 270 275 282 287 287 288 288 288 303 304 313 313
274 273 271 272 274 273 269 264 262 261 258 258 254 236 241 242 234 234 229 238 241 256 266 262 253 259 262 259 252 247 251 252 255 252 246 260 267 260 261 262 262 228 238 216 257 271 282 301 273 285 270 220 274 300 280 211 273 304 288 305 311 316 310 315 297 289 315 306 270 355 359 350 340 330 333 324 337 340 356 355 349 343 346 354 339 337 329
273 273 271 269 266 264 265 266 265 261 258 256 248 229 246 239 246 225 217 234 248 270 262 241 250 250 238 245 251 239 231 234 236 241 245 241 253 262 259 256 265 273 248 226 219 253 268 262 267 284 270 282 315 283 294 293 258 347 333 308 301 302 321 338 290 299 317 279 354 346 334 325 314 308 305 307 319 306 326 344 342 325 330 330 329 326 323
273 273 273 271 267 265 265 264 262 261 258 257 256 241 228 242 212 208 200 216 213 220 249 249 230 232 238 242 255 255 233 231 235 236 227 222 226 242 255 253 257 274 276 278 268 263 262 283 284 273 274 266 301 278 270 288 285 343 288 291 313 286 7 321 324 314 291 292 304 303 303 294 291 285 295 331 329 321 330 325 316 315 312 309 312 318 314
271 271 271 271 272 270 265 264 263 261 258 258 250 242 237 228 215 208 227 263 267 253 262 250 262 234 220 219 227 227 215 211 223 226 223 224 227 233 249 262 260 251 262 262 269 262 262 262 265 272 280 275 199 261 268 249 280 301 284 276 277 297 329 268 327 293 295 297 287 291 291 292 292 301 17 309 316 317 306 307 310 310 307 306 305 303 300
271 272 271 272 271 271 269 264 263 260 257 254 250 240 236 232 206 194 186 183 193 253 222 245 247 192 142 226 233 233 221 221 223 230 232 227 228 232 238 248 256 260 260 267 261 266 264 262 263 268 258 276 309 274 288 283 275 268 261 267 263 266 262 279 290 284 281 269 300 322 306 304 303 304 318 315 312 305 306 313 312 310 307 306 303 301 300
272 271 270 270 271 270 269 265 264 263 260 259 257 242 236 237 215 208 203 190 193 227 243 242 235 200 113 277 251 232 224 218 224 231 234 235 227 227 232 240 249 253 254 257 265 254 251 253 257 257 256 271 274 267 266 274 270 262 255 267 266 255 258 260 258 260 271 284 280 278 292 299 298 311 315 311 308 306 305 306 303 303 300 298 295 294 290
272 271 272 273 273 271 270 267 261 256 259 258 250 255 250 236 229 205 208 214 227 249 255 268 291 262 241 221 110 205 221 223 226 230 232 230 229 225 230 236 238 245 247 247 252 259 260 261 263 264 256 267 275 281 296 267 259 259 262 278 274 278 285 282 286 291 287 296 302 309 300 293 298 298 297 298 304 306 304 305 303 300 300 301 297 293 293
273 274 274 272 271 270 270 269 262 254 252 252 233 201 263 239 206 213 205 209 207 223 225 223 232 231 183 249 246 240 232 215 220 228 231 234 232 229 230 233 239 241 245 250 256 256 258 264 259 259 262 262 262 271 270 272 271 268 267 265 269 270 266 265 265 264 273 286 287 286 284 285 288 292 297 298 306 326 327 320 318 318 315 315 309 306 299
273 273 274 274 272 271 267 265 262 254 245 238 196 185 189 255 209 192 201 207 195 176 219 236 244 292 285 208 212 231 231 219 216 219 227 228 234 237 238 237 245 244 253 249 246 251 260 264 264 259 257 248 254 257 262 264 266 266 269 269 267 268 269 270 271 269 272 280 295 302 296 294 303 308 312 338 337 327 315 311 308 305 305 306 304 304 302
275 275 275 274 272 269 264 259 254 248 241 218 190 191 185 220 42 175 195 191 143 179 205 224 241 224 237 247 201 233 233 237 231 227 233 220 239 231 238 226 236 223 230 243 252 265 255 260 256 259 257 252 252 256 254 259 265 270 278 273 269 270 273 276 280 289 323 23 16 335 313 314 327 329 308 313 306 303 296 299 308 314 313 307 304 301 298
276 276 275 274 273 268 263 259 250 236 232 228 221 231 270 316 148 149 162 132 170 186 111 226 222 256 238 226 103 216 167 175 215 213 238 209 230 206 232 211 226 237 226 247 245 255 235 248 253 261 254 255 256 258 256 257 268 277 274 276 277 276 284 314 340 21 25 12 35 329 292 301 306 308 302 296 294 302 312 313 313 309 306 307 305 304 301
278 278 277 275 269 261 258 255 249 242 243 236 226 224 218 224 186 156 135 142 146 193 171 198 210 216 239 95 305 203 150 214 230 199 242 205 206 208 228 226 218 237 191 217 238 246 248 254 258 260 263 251 252 263 259 259 263 268 269 269 295 335 354 335 335 359 355 339 334 313 291 291 287 285 294 306 310 307 307 307 311 312 308 304 299 295 295
281 280 278 276 267 254 253 244 241 180 161 197 237 243 190 198 199 171 159 160 135 212 167 231 192 218 222 224 224 243 135 208 238 234 247 235 163 213 225 236 234 243 242 221 254 256 263 251 259 262 258 264 254 255 267 268 269 275 297 345 14 345 353 351 332 347 334 327 317 313 309 298 306 321 316 309 305 309 315 312 309 311 306 297 294 295 299
281 280 276 263 253 244 229 223 181 172 187 207 222 173 182 193 193 188 199 13 131 187 183 213 169 207 203 235 238 240 115 228 237 255 238 252 239 204 241 237 259 241 241 233 248 247 254 251 251 258 269 259 251 257 277 296 327 16 47 5 6 14 326 315 308 318 314 308 300 292 289 313 318 303 303 300 301 307 310 304 300 299 290 289 292 299 302
282 277 276 269 209 109 197 196 155 189 225 166 126 99 89 82 42 50 81 207 250 103 226 210 214 220 201 232 251 224 158 246 193 215 221 191 231 201 184 215 241 259 246 246 242 248 250 249 260 269 253 261 268 300 44 41 20 12 9 7 348 344 332 323 329 322 314 311 305 292 341 317 305 302 298 298 301 307 303 295 297 305 302 298 298 298 295
265 237 147 146 182 187 168 203 186 170 150 131 125 118 87 62 142 138 182 207 188 137 229 200 237 233 233 225 238 191 173 238 209 223 220 190 238 235 202 232 242 249 236 231 232 231 249 244 250 256 259 253 255 71 28 45 30 18 10 3 343 334 331 325 333 335 330 330 333 338 339 331 321 307 304 304 306 304 295 292 294 295 295 292 291 294 296
255 124 160 202 180 192 191 102 129 151 142 124 117 137 78 157 167 205 194 172 217 208 195 192 224 214 219 226 241 222 215 252 240 206 235 215 195 264 178 225 232 204 260 259 252 187 255 237 252 251 258 259 251 51 17 25 7 5 347 342 338 328 325 321 325 321 311 280 281 297 295 298 307 307 310 309 304 297 289 291 295 295 292 290 289 290 286
128 183 181 173 200 126 76 112 143 139 136 106 355 170 152 168 187 206 109 139 230 254 195 228 216 224 213 222 233 246 171 204 228 234 230 242 182 231 245 222 271 149 228 234 246 205 244 257 253 255 257 254 121 60 7 354 337 343 346 330 333 315 316 307 308 300 292 290 285 282 285 281 281 285 292 296 299 299 301 299 290 286 291 290 291 290 287
180 132 175 152 120 105 111 90 121 136 129 123 113 73 113 181 192 226 135 216 219 231 198 239 201 223 221 230 227 243 212 164 245 313 275 253 208 127 205 223 172 159 241 243 254 214 251 243 259 253 259 116 114 9 347 344 336 332 331 322 317 314 301 307 302 299 296 292 288 283 280 280 276 276 278 282 285 285 286 290 293 293 292 290 291 289 285
171 168 123 104 106 108 115 116 65 117 150 169 173 197 174 188 87 282 211 216 211 206 221 182 216 221 231 198 216 219 252 88 229 206 216 239 223 204 235 226 191 214 236 209 93 244 235 253 254 254 177 114 49 7 347 342 329 326 317 326 315 311 310 304 301 298 291 289 290 291 289 287 286 283 284 287 286 286 286 288 289 288 285 282 282 283 288
121 122 131 127 131 147 161 160 195 172 175 173 138 218 155 197 204 196 214 219 314 230 248 105 294 64 20 62 223 214 246 132 203 206 205 240 343 97 192 232 203 235 232 192 212 245 232 244 253 256 97 107 39 342 1 330 324 311 314 313 317 309 306 303 301 300 300 296 293 292 293 291 288 285 285 284 285 284 281 279 283 288 288 286 280 275 277
100 96 97 133 126 205 134 203 142 80 198 174 173 204 184 204 208 164 226 206 153 217 214 183 193 193 229 149 211 156 158 226 183 102 252 239 188 230 201 223 223 240 107 232 225 240 244 242 254 99 108 13 27 355 341 335 328 319 310 312 311 309 304 305 305 304 302 300 290 289 289 289 289 289 285 280 283 284 287 287 285 285 287 290 289 291 294
146 152 99 92 172 201 96 222 83 176 197 199 194 208 180 208 210 190 205 50 25 115 30 285 287 225 230 116 22 272 196 236 59 125 233 157 231 222 200 251 230 278 233 254 240 255 256 256 108 97 52 1 346 337 334 325 321 321 313 309 308 310 311 309 306 304 299 300 297 298 296 297 296 293 294 292 290 286 287 289 292 291 289 289 292 295 293
176 167 147 162 190 189 156 216 144 211 252 206 218 205 225 241 37 154 59 5 257 31 101 33 354 276 232 87 241 269 95 161 188 213 213 212 214 249 208 278 17 253 248 239 244 247 250 265 90 69 14 338 335 326 326 312 317 309 319 310 312 311 307 304 303 300 300 300 302 300 299 301 300 301 300 298 293 287 282 281 286 288 289 292 295 297 295
101 47 119 72 147 183 103 194 215 199 310 283 357 3 331 49 64 68 51 349 25 357 327 292 215 321 276 225 212 255 189 79 230 249 75 238 215 268 302 260 257 221 249 253 249 253 253 83 19 19 355 330 321 319 312 314 311 314 304 302 300 301 303 301 300 301 301 303 301 303 301 302 301 302 300 300 296 292 290 291 290 290 293 296 296 294 294
162 148 119 171 211 156 197 226 83 75 64 17 1 357 23 167 146 92 21 0 310 308 348 328 277 168 212 197 126 250 248 191 250 245 189 253 276 235 247 231 236 240 232 254 257 315 55 33 348 335 327 331 315 315 317 316 317 312 307 306 303 302 302 303 301 301 306 307 305 303 303 304 304 304 303 300 300 300 299 298 298 299 301 298 296 299 304
99 161 175 235 205 189 149 73 154 211 114 64 31 40 32 65 66 49 351 340 350 357 324 306 5 71 259 131 203 219 235 167 214 237 146 227 213 232 228 245 243 255 240 262 309 50 342 346 323 318 313 314 315 310 307 306 306 308 308 306 305 302 302 298 300 304 305 302 299 302 305 306 305 303 302 302 302 305 310 309 309 312 311 309 312 313 317
153 152 181 190 219 259 101 53 323 250 122 87 55 48 41 69 77 49 4 342 340 316 253 225 254 233 263 107 238 198 231 206 208 243 215 227 223 248 239 255 238 256 260 56 331 337 327 323 321 312 315 317 312 308 307 308 308 304 302 298 297 298 298 303 305 305 302 300 302 305 304 305 304 303 303 305 302 301 306 311 315 320 319 320 324 328 333
310 42 55 12 279 324 33 241 224 230 161 104 63 36 26 46 42 7 11 338 312 287 228 218 170 182 249 214 229 234 226 61 291 231 236 245 232 241 234 253 267 42 336 321 309 306 309 311 312 312 312 310 311 307 305 302 303 299 299 298 298 299 302 302 300 300 300 301 303 306 303 300 296 296 296 297 298 302 306 308 319 327 327 325 334 341 345
185 178 143 61 41 40 42 99 69 54 49 70 74 12 353 74 6 328 327 312 284 233 240 102 119 207 195 225 250 323 351 247 239 229 239 236 68 234 262 330 15 332 325 323 306 306 300 302 305 303 303 304 307 309 306 303 300 298 298 301 305 305 304 302 300 299 300 302 303 300 298 294 295 298 303 302 303 309 317 319 326 329 326 328 348 358 7